Temp
8 10 11 11 11 11 11 11 10 9 9 9 9 9 8 8 8 7 6 5 5 4 3 3 2 2 1 1 0 -0 -0 1 1 2 3 5 10 11 11 12 13 15 15
8 9 10 10 11 10 10 9 8 8 8 8 8 7 7 7 7 7 6 5 4 3 3 2 2 1 1 1 -0 -1 -1 -0 0 1 2 6 9 9 10 12 12 14 15
8 9 9 10 10 9 9 8 7 7 7 7 7 7 6 6 6 6 5 4 3 2 2 2 2 1 1 0 -0 -1 -1 -0 0 0 1 4 5 3 10 12 12 13 14
7 8 8 8 9 8 8 7 7 7 7 6 6 6 5 5 5 4 4 4 3 2 2 1 1 0 0 -0 -1 -1 -1 -1 -0 0 1 1 1 3 5 8 12 13 12
7 7 8 8 8 8 7 7 7 7 6 5 5 5 5 4 4 4 3 3 3 2 2 1 0 -0 -0 -1 -1 -1 -2 -2 -1 -0 0 1 1 1 2 5 8 12 12
6 7 7 7 7 7 7 7 7 6 5 5 5 4 4 3 3 3 2 2 2 1 1 0 -0 -1 -1 -1 -1 -2 -2 -2 -2 -1 -0 0 1 2 2 3 4 4 12
6 6 6 6 6 7 7 6 6 5 4 4 3 3 3 2 2 1 1 0 0 0 0 -1 -1 -1 -2 -2 -2 -2 -2 -2 -2 -1 -1 -0 0 1 0 0 1 4 10
6 6 6 6 6 6 6 5 5 4 4 3 3 3 2 2 1 0 -0 -0 -1 -1 -1 -1 -2 -2 -2 -2 -2 -3 -3 -3 -3 -2 -1 -1 -0 0 0 -0 1 3 8
6 6 5 5 6 6 5 4 4 3 3 3 2 2 1 1 0 -0 -1 -1 -1 -2 -3 -3 -3 -3 -3 -3 -3 -4 -4 -3 -3 -3 -2 -1 -0 -0 -0 -1 -1 1 5
5 5 4 5 5 5 4 4 3 3 2 2 1 1 0 -0 -1 -1 -1 -1 -2 -2 -2 -3 -3 -3 -3 -3 -4 -4 -4 -4 -3 -3 -2 -2 -1 -1 -1 -1 -1 -1 1
4 4 3 4 4 4 3 3 3 2 1 1 0 -0 -0 -1 -1 -1 -1 -2 -2 -2 -3 -3 -3 -3 -4 -4 -5 -5 -4 -4 -4 -3 -3 -2 -2 -1 -1 -1 -1 -1 0
3 3 3 3 3 3 3 3 2 1 1 0 -0 -0 -1 -1 -1 -1 -2 -2 -3 -2 -3 -3 -3 -4 -4 -5 -5 -5 -4 -4 -4 -4 -3 -3 -2 -2 -1 -1 -1 -1 -0
2 2 1 1 2 3 3 2 2 1 0 -0 -1 -1 -1 -1 -2 -2 -2 -2 -3 -3 -3 -4 -4 -4 -5 -6 -5 -5 -5 -5 -5 -4 -4 -3 -3 -2 -2 -1 -1 -1 -1
-1 -2 -1 0 2 2 1 1 1 0 -0 -1 -1 -2 -1 -2 -2 -3 -3 -3 -3 -4 -4 -4 -4 -5 -6 -6 -6 -6 -5 -5 -5 -5 -4 -4 -3 -3 -2 -2 -1 -1 -0
-1 -1 -2 -1 1 1 1 1 1 0 -1 -1 -2 -1 -1 -2 -2 -2 -2 -3 -4 -4 -4 -5 -5 -5 -6 -6 -6 -6 -6 -5 -5 -5 -5 -4 -4 -3 -3 -2 -2 -1 -1
-2 -3 -3 -1 -0 0 -0 0 1 0 -1 -1 -1 -1 -2 -2 -3 -3 -3 -4 -5 -5 -5 -6 -6 -6 -6 -6 -5 -4 -4 -5 -5 -4 -5 -5 -4 -3 -3 -2 -1 -1 -1
-2 -3 -3 -2 -0 1 0 0 0 0 -0 -1 -1 -2 -3 -4 -4 -4 -5 -5 -5 -6 -6 -7 -7 -7 -7 -6 -5 -4 -4 -4 -4 -4 -4 -4 -4 -4 -4 -3 -1 -1 -0
-4 -3 -2 -1 1 1 0 -1 -1 -1 -2 -2 -3 -3 -4 -5 -5 -6 -6 -6 -6 -7 -7 -7 -7 -7 -7 -6 -6 -5 -4 -5 -4 -4 -4 -4 -4 -4 -4 -3 -3 -3 -1
-1 -1 -0 -0 0 1 1 -1 -2 -2 -3 -4 -4 -4 -5 -6 -6 -6 -7 -7 -7 -7 -7 -7 -7 -7 -7 -7 -6 -5 -5 -5 -5 -4 -4 -4 -4 -4 -3 -3 -3 -3 -3
-0 -0 1 0 1 1 -1 -2 -3 -4 -4 -4 -4 -5 -6 -6 -7 -7 -7 -7 -8 -8 -7 -7 -7 -7 -7 -7 -6 -5 -5 -5 -5 -5 -5 -4 -4 -4 -3 -3 -3 -3 -3
0 1 1 -1 -0 -0 -2 -3 -4 -5 -4 -5 -6 -6 -7 -7 -7 -7 -8 -8 -8 -8 -8 -8 -8 -7 -7 -7 -7 -6 -5 -5 -5 -5 -4 -4 -4 -3 -3 -2 -3 -3 -3
0 0 -2 -2 -2 -2 -3 -5 -6 -3 -4 -5 -6 -7 -7 -8 -8 -8 -8 -8 -8 -8 -8 -8 -8 -7 -7 -7 -6 -6 -5 -5 -5 -5 -5 -4 -4 -3 -3 -2 -2 -2 -2
-2 -2 -3 -3 -3 -3 -4 -5 -4 -4 -5 -6 -7 -8 -8 -8 -8 -8 -8 -8 -8 -8 -7 -7 -7 -6 -6 -6 -6 -5 -4 -4 -4 -4 -5 -4 -4 -3 -3 -3 -2 -2 -2
-2 -2 -3 -4 -4 -4 -3 -4 -4 -4 -6 -7 -8 -8 -9 -9 -8 -8 -8 -7 -7 -7 -7 -7 -7 -7 -6 -6 -6 -6 -6 -5 -5 -4 -4 -4 -3 -3 -3 -3 -3 -2 -2
-2 -3 -4 -4 -4 -4 -4 -5 -5 -5 -7 -8 -9 -9 -10 -10 -9 -9 -8 -8 -8 -7 -7 -7 -7 -6 -6 -5 -5 -5 -5 -6 -6 -5 -6 -5 -5 -3 -3 -3 -3 -3 -2
-3 -4 -4 -5 -4 -5 -5 -6 -6 -6 -8 -9 -9 -10 -9 -9 -9 -9 -8 -7 -7 -6 -6 -5 -5 -5 -5 -4 -4 -4 -3 -3 -4 -5 -5 -5 -5 -4 -3 -3 -3 -3 -3
Height
825 827 829 830 832 832 833 833 833 833 832 831 830 827 826 825 825 824 824 823 821 820 818 817 813 811 808 806 805 803 800 796 790 780 772 758 752 750 751 754 753 755 757
824 825 826 828 830 831 832 832 832 831 830 827 827 826 824 822 821 819 820 820 819 817 814 812 810 808 805 803 802 801 799 795 792 787 782 766 752 751 748 749 751 745 748
821 823 824 827 829 830 830 830 831 830 828 825 823 823 822 820 819 817 816 817 816 815 813 810 807 805 805 802 800 800 799 796 793 791 790 780 770 764 747 744 743 742 747
821 822 824 826 826 827 827 827 827 825 823 820 819 818 819 819 817 816 814 814 813 811 809 807 806 803 802 799 797 797 797 796 793 791 788 788 785 775 764 744 742 742 742
819 821 823 825 826 826 827 827 827 825 822 821 818 817 816 816 815 814 812 810 809 807 805 802 801 800 798 795 793 793 793 793 792 790 788 782 782 780 777 762 746 740 737
819 821 823 824 824 824 824 824 822 820 819 817 813 811 813 814 813 811 808 805 803 801 800 799 796 795 794 792 790 788 788 788 787 786 784 781 781 780 776 768 755 750 739
819 819 820 820 822 822 822 821 819 818 818 817 814 812 812 811 811 808 804 802 798 796 795 795 792 790 789 788 786 784 783 783 783 782 781 779 775 777 781 775 767 759 736
816 817 817 817 818 818 818 818 818 816 815 813 810 809 809 808 807 805 802 798 795 793 792 788 786 786 784 783 782 780 778 777 778 778 777 776 773 772 770 769 772 766 743
814 814 815 816 817 817 817 815 814 814 812 810 808 807 806 805 802 800 797 794 792 788 786 784 781 779 779 778 777 774 773 772 772 772 772 771 771 769 770 770 771 769 752
814 815 815 815 815 815 814 813 811 808 807 806 805 804 802 800 798 796 792 790 787 783 781 779 775 774 773 773 772 769 768 767 766 767 767 767 766 765 765 764 763 764 764
815 814 814 814 813 814 813 810 808 806 804 802 801 799 797 795 792 789 787 784 781 779 776 772 769 767 768 768 766 764 763 762 760 760 761 760 762 759 759 760 761 757 760
814 814 814 813 812 812 809 807 804 802 800 797 796 793 791 789 787 784 781 778 775 773 770 767 763 761 762 762 760 758 758 757 756 755 756 755 756 754 753 757 758 759 751
810 811 811 809 807 805 803 800 798 796 795 793 791 788 785 783 781 778 774 771 769 767 764 761 758 757 756 755 753 752 752 751 750 750 750 749 751 749 749 750 752 749 744
809 809 807 804 802 799 799 796 794 792 790 787 785 783 780 777 775 771 768 765 763 761 758 754 752 751 750 748 746 745 745 745 743 743 743 743 743 743 745 745 745 746 744
805 803 801 799 797 795 794 792 789 787 784 781 778 775 772 770 767 764 761 759 756 753 750 747 745 744 743 741 739 738 738 737 737 735 735 736 736 737 736 739 739 737 740
803 802 800 797 793 791 789 787 784 781 779 776 773 770 767 764 761 757 755 753 750 747 745 741 739 737 734 732 732 732 731 729 729 728 728 728 730 732 732 734 733 734 734
799 798 797 793 788 785 783 781 779 777 774 770 766 762 760 756 753 750 747 744 742 740 738 735 733 730 727 724 724 724 723 721 720 719 720 721 720 721 723 722 723 726 727
797 794 791 787 784 781 779 777 774 770 767 763 758 755 752 748 746 743 740 737 735 732 730 727 724 722 718 717 717 717 716 714 712 711 710 711 713 714 717 718 716 718 719
791 789 787 784 779 776 774 771 767 764 760 755 751 748 745 741 739 735 732 729 727 724 722 719 716 714 710 709 710 710 709 708 706 704 703 702 703 705 707 709 711 711 712
787 785 782 778 774 771 769 765 761 758 753 748 744 741 738 735 730 727 724 721 719 716 715 711 709 706 703 702 702 702 702 700 699 698 696 696 694 697 701 702 703 709 712
782 780 777 773 769 766 764 760 756 752 746 741 737 734 731 727 723 718 716 713 711 709 706 703 700 698 696 693 694 693 693 693 693 691 690 690 690 690 694 696 697 702 707
778 775 772 766 761 759 757 753 749 744 739 735 730 726 722 719 715 712 708 706 704 702 699 696 692 689 688 686 685 685 684 684 684 684 684 684 685 685 687 687 691 698 700
774 769 766 759 753 752 750 745 740 737 732 728 723 719 715 711 708 705 703 700 698 696 692 689 685 681 680 678 677 676 676 675 675 675 676 678 680 681 682 684 688 691 692
768 764 760 754 748 745 741 738 733 730 725 720 717 713 708 704 701 699 697 694 691 688 685 683 678 674 671 670 669 667 666 667 667 667 668 668 670 673 675 680 683 685 685
763 759 755 750 743 738 734 731 728 723 718 715 711 706 703 698 695 693 690 687 684 681 678 674 670 666 662 661 661 659 657 657 656 658 660 662 663 663 666 669 671 674 679
758 754 749 744 737 733 729 725 722 717 713 709 705 701 698 693 690 686 682 680 677 673 670 666 662 657 654 651 650 649 647 646 647 648 649 651 654 655 658 662 667 670 674
Wind_Speed
5 10 10 8 5 2 2 6 10 11 12 13 13 12 11 12 12 16 16 16 15 15 16 20 22 22 22 22 21 18 18 19 18 17 22 19 16 20 22 27 18 38 36
4 7 10 8 6 3 5 8 11 12 11 9 9 10 12 12 13 15 17 16 15 15 18 21 22 22 22 23 21 17 16 14 14 9 16 6 8 7 17 23 28 12 32
7 5 9 8 6 3 5 8 13 15 12 11 9 9 10 10 12 15 18 18 18 18 18 19 20 20 21 21 19 16 13 14 12 10 3 4 3 10 7 22 20 9 26
4 3 9 8 4 3 3 5 11 13 12 11 9 8 9 11 12 15 16 17 21 21 21 20 18 19 18 20 18 12 12 12 13 10 1 8 9 3 5 12 18 16 16
6 6 8 5 3 3 3 8 12 15 15 14 11 8 8 10 13 15 17 18 20 22 23 20 19 18 18 19 18 17 13 12 12 11 11 8 10 15 8 6 9 15 14
6 6 5 3 3 2 3 9 12 14 14 13 9 6 7 8 11 15 19 21 23 23 22 21 19 19 19 19 19 17 15 13 13 14 13 10 6 5 4 3 6 13 9
5 4 2 2 1 2 6 11 14 14 16 14 10 7 6 9 13 17 19 22 24 23 23 20 20 19 18 19 18 18 15 13 13 14 13 13 12 13 9 8 10 6 5
3 2 1 2 3 4 8 11 13 14 15 14 11 8 9 12 16 17 19 22 22 22 21 19 18 18 19 20 20 19 16 15 15 15 16 15 13 11 13 7 4 6 5
1 2 4 5 6 6 7 10 13 13 15 15 12 11 12 16 17 18 19 19 20 20 17 19 19 19 19 19 19 18 16 15 15 15 16 15 14 12 12 13 13 7 4
2 3 6 9 8 7 9 10 10 12 14 14 11 13 18 17 17 19 19 19 20 19 19 19 19 19 19 19 18 18 16 15 15 15 15 17 17 14 13 14 17 15 11
5 5 8 10 9 8 11 11 12 13 13 13 12 18 18 17 18 19 20 19 19 19 20 19 19 19 20 19 18 18 18 17 16 16 17 18 17 16 14 15 16 19 13
4 5 10 10 9 10 13 13 13 15 15 14 16 18 18 19 20 21 20 19 19 20 20 20 19 20 20 19 18 18 18 17 16 16 17 19 19 18 15 16 17 20 16
5 5 8 8 8 11 13 15 16 17 17 18 19 20 21 22 22 23 22 21 20 20 20 20 20 20 20 19 18 19 20 19 18 17 18 20 19 19 17 16 18 16 15
5 5 5 6 11 14 14 16 19 17 17 20 21 23 24 24 24 24 24 22 21 21 21 20 21 21 21 20 18 18 20 21 19 18 18 20 20 21 18 17 18 17 16
6 5 5 8 15 16 17 18 21 22 22 24 25 27 28 26 26 26 24 24 23 22 21 20 21 21 21 19 17 17 19 20 20 19 19 20 21 22 21 19 17 17 16
7 6 4 9 15 19 18 17 22 25 26 27 29 30 30 29 29 28 26 24 24 23 22 21 20 20 20 19 19 21 22 22 22 20 18 18 22 23 25 24 22 17 18
6 6 7 14 19 23 22 21 23 24 26 27 31 31 29 30 29 27 25 24 24 22 22 22 21 22 23 21 20 22 24 23 23 23 21 18 19 20 22 21 22 24 22
5 6 12 18 23 25 26 24 22 24 26 29 31 29 28 27 27 26 25 25 24 22 22 23 23 22 24 22 21 21 22 22 22 25 23 22 20 20 20 20 21 20 20
10 17 18 20 24 28 28 24 25 27 27 29 28 29 26 26 26 26 25 24 22 21 22 22 23 22 24 21 21 20 20 20 21 22 22 23 23 23 22 21 20 19 22
15 20 27 26 28 32 28 25 26 24 26 30 29 27 25 25 26 27 26 24 23 23 22 23 22 23 26 24 22 22 19 18 21 22 23 26 26 25 25 25 21 22 21
25 29 30 28 31 32 28 26 26 24 31 29 27 24 24 25 26 28 26 25 23 22 23 23 25 24 25 25 23 22 22 20 21 21 21 22 25 28 28 28 25 22 18
25 30 24 27 32 29 24 25 24 32 32 29 25 26 27 25 24 23 23 23 21 21 22 22 25 23 23 22 22 21 21 22 23 23 23 21 23 25 28 29 26 26 25
23 25 22 27 32 27 26 25 32 32 33 27 26 27 27 23 21 20 21 21 19 20 21 20 20 21 21 20 20 21 21 21 22 22 24 24 24 26 27 28 29 28 26
17 22 24 23 27 28 28 28 32 32 30 26 24 26 24 21 18 18 19 19 19 19 19 19 19 22 22 21 19 22 22 21 21 21 19 21 27 27 24 24 27 30 26
24 25 23 24 28 29 27 26 27 30 26 21 22 23 20 20 19 18 18 18 21 22 21 23 25 24 23 22 20 23 23 23 24 20 15 14 19 19 26 24 23 24 24
24 26 28 26 25 29 27 27 31 30 24 20 20 18 18 18 18 19 20 21 22 24 26 28 29 28 30 31 29 27 27 26 25 23 20 17 18 20 18 26 25 26 26
Wind_Direction
226 215 207 197 193 200 11 348 346 346 339 326 310 301 298 304 323 338 344 340 338 331 324 321 323 325 325 325 326 324 321 325 334 338 325 305 290 272 250 252 264 212 214
202 205 196 182 179 115 34 23 14 1 352 338 315 297 295 304 317 334 337 336 335 328 325 324 323 323 321 320 322 324 319 319 337 343 316 322 342 327 263 243 240 215 204
191 184 167 165 142 80 56 43 19 7 356 346 329 309 301 299 306 323 330 330 328 328 327 322 319 318 314 311 314 317 312 310 319 333 291 316 332 323 312 225 220 221 210
187 175 154 145 130 85 92 17 5 360 355 349 336 313 299 301 307 315 318 318 319 323 324 321 318 311 306 305 307 308 302 299 298 314 94 291 300 334 318 306 201 216 220
171 159 150 131 109 72 22 355 352 356 355 350 342 320 298 292 295 303 307 308 311 313 315 317 313 307 300 299 299 301 297 289 283 281 289 300 289 258 244 292 325 227 225
135 115 130 112 93 68 8 344 341 352 347 343 336 316 294 289 293 304 310 314 314 313 312 310 306 304 295 293 294 292 288 285 281 275 268 259 268 303 311 315 325 312 193
130 147 107 80 81 1 342 338 338 339 342 339 339 329 307 302 307 311 313 313 312 311 308 306 304 299 294 290 289 286 285 281 274 270 263 262 255 266 257 274 294 289 291
147 148 179 333 314 317 325 325 330 325 333 332 329 318 309 308 308 307 309 306 305 304 302 300 300 298 295 289 285 282 280 277 269 262 260 260 254 251 271 262 292 296 274
126 353 322 282 277 282 301 315 322 316 328 328 314 302 302 305 304 307 307 304 302 302 300 299 298 299 295 289 284 280 278 273 265 262 258 255 250 240 250 255 263 300 314
309 288 272 268 266 286 301 307 305 314 318 316 299 297 304 303 304 308 308 305 303 302 300 299 300 301 296 290 284 279 276 270 265 257 254 251 251 242 243 258 264 260 269
252 268 278 280 280 289 305 311 306 310 309 306 292 302 303 301 305 306 306 304 301 301 299 300 301 301 295 289 282 276 275 268 263 258 252 252 251 247 235 247 248 255 247
278 273 281 284 270 288 317 315 310 307 310 305 302 306 304 304 305 305 305 303 301 300 300 300 300 297 290 286 280 275 271 265 261 257 253 249 249 244 236 231 240 241 247
260 285 277 276 264 302 312 314 320 321 317 313 310 310 305 303 303 305 305 304 301 298 298 299 297 294 287 283 279 274 270 266 260 254 250 249 245 243 235 227 238 241 248
255 265 271 298 303 312 313 320 325 329 326 320 310 308 307 305 302 304 303 300 297 294 295 296 294 290 286 278 276 273 270 267 262 254 247 248 245 244 235 229 232 237 235
302 289 286 294 306 315 326 330 329 331 330 324 315 309 307 303 301 297 296 294 290 289 291 289 287 286 282 276 273 271 268 267 264 255 248 246 243 244 240 237 227 233 235
242 254 254 300 313 318 317 320 326 327 325 321 316 314 308 303 297 294 294 293 291 291 291 284 280 276 274 272 272 270 266 260 259 256 250 244 243 241 239 237 230 225 228
305 298 289 297 313 321 324 318 316 314 312 312 312 312 308 299 292 291 288 286 288 288 284 282 279 275 276 276 272 269 268 265 260 258 251 247 247 242 239 241 236 233 230
269 277 296 315 325 325 321 318 309 304 308 308 307 307 302 292 291 287 283 285 286 282 279 280 277 275 275 277 274 270 267 265 262 259 253 246 244 242 233 230 234 238 236
285 293 303 316 320 319 320 316 310 307 305 300 299 302 300 292 286 279 277 279 278 275 274 275 275 273 276 275 274 270 266 264 263 261 256 245 245 244 242 233 231 235 242
309 315 325 321 319 320 320 312 306 302 296 299 301 298 294 286 276 276 278 278 273 274 275 275 273 272 273 275 272 268 263 257 255 254 252 252 242 241 239 235 227 232 232
317 322 317 311 311 316 314 301 298 291 303 300 296 294 293 287 279 276 276 277 274 273 271 274 275 273 271 274 272 267 259 252 253 252 247 243 247 244 232 235 231 230 234
311 311 300 297 304 307 305 292 287 308 308 301 297 299 296 291 283 276 276 273 271 272 274 273 274 275 274 270 271 269 262 255 245 242 243 241 245 243 240 234 231 231 228
287 292 286 293 303 307 306 290 299 306 304 297 295 297 296 295 286 278 275 274 272 265 268 270 274 277 277 270 268 270 268 267 262 247 239 240 238 241 240 235 233 228 222
298 304 303 300 300 306 304 300 302 306 295 290 290 296 295 294 285 278 275 273 272 270 270 272 270 271 270 268 264 261 262 261 262 261 259 251 234 230 233 229 227 228 220
312 310 303 299 296 301 299 304 310 308 293 287 292 293 291 287 289 284 274 275 270 269 267 263 261 264 268 271 266 260 251 241 242 246 242 249 250 232 215 222 223 225 224
308 307 304 298 302 310 308 311 315 312 298 293 296 291 291 289 288 285 288 289 284 287 286 286 285 284 280 283 283 281 278 271 253 232 223 218 228 233 223 205 210 214 219